Location: Newark
(50.2306°N, 14.0814°E)
Time: 23:40:38
(UTC+00:00)

N. Korean satellite - Pass Details

Date: 09 December 2019
Orbit: 454 x 507 km, 97.2° (Epoch: 21 January)

Event Time Altitude Azimuth Distance (km) Brightness Sun altitude
Rises 03:51:11 0° 30° (NNE) 2,561 10.6 -27.5°
Reaches altitude 10° 03:54:14 10° 59° (ENE) 1,660 9.9 -27.0°
Maximum altitude 03:56:00 13° 89° (E) 1,462 9.9 -26.7°
Drops below altitude 10° 03:57:44 10° 118° (ESE) 1,637 10.1 -26.4°
Sets 04:00:41 0° 147° (SSE) 2,494 10.7 -26.0°
